Location: Newark
(42.8481°N, 0.4872°E)
Time: 13:15:43
(UTC+00:00)

A-11 Canister half - Pass Details

Date: 02 November 2020
Orbit: 1525 x 1684 km, 47.3° (Epoch: 01 December)

Event Time Altitude Azimuth Distance (km) Brightness Sun altitude
Rises 20:45:16 0° 292° (WNW) 4,690 12.4 -43.3°
Reaches altitude 10° 20:49:04 10° 280° (W) 3,695 11.6 -43.9°
Maximum altitude 20:55:54 24° 231° (SW) 2,761 10.4 -45.1°
Enters shadow 20:56:26 24° 227° (SW) 2,768 10.4 -45.1°
Drops below altitude 10° 21:02:47 10° 183° (S) 3,697 - -46.2°
Sets 21:06:36 0° 170° (S) 4,691 - -46.8°
